Regional Weather Roundup
Issued by NWS

Home | Current Version | Previous Version | Graphics & Text | Print | Product List | Glossary On
Versions: 1 2 3 4 5 6 7 8 9 10 11 12 13 14 15 16 17 18 19 20 21 22 23 24 25 26 27 28 29 30 31 32 33 34 35 36 37 38 39 40 41 42 43 44 45 46 47 48 49 50
000
ASUS43 KLSX 201010
RWRMO

WEATHER SUMMARY FOR MISSOURI
NATIONAL WEATHER SERVICE SPRINGFIELD MO
500 AM CDT FRI APR 20 2018

NOTE: "FAIR" INDICATES FEW OR NO CLOUDS BELOW 12,000 FEET WITH NO
       SIGNIFICANT WEATHER AND/OR OBSTRUCTIONS TO VISIBILITY.
       CURRENT SKY AND/OR WEATHER CONDITIONS ARE NOT AVAILABLE FOR
       CHILLICOTHE AND FARMINGTON.

MOZ001>031-035>038-043-044-053-054-201100-
...NORTHERN AND WESTERN MISSOURI...

CITY           SKY/WX    TMP DP  RH WIND       PRES   REMARKS
KANSAS CTY INT CLOUDY    40  29  64 E3        30.41S
KANSAS C DTWN  CLOUDY    41  29  62 CALM      30.42R
LEE`S SUMMIT   CLOUDY    40  31  70 E6        30.42R
ST JOSEPH      PTCLDY    30  28  92 CALM      30.43S
CHILLICOTHE      N/A     31  26  82 CALM      30.46S
KIRKSVILLE     CLEAR     31  25  78 NE5       30.46S WCI  26

$$
MOZ066>068-077>081-088>096-101>105-201100-
...SOUTHWEST MISSOURI...

CITY           SKY/WX    TMP DP  RH WIND       PRES   REMARKS
SPRINGFIELD    CLEAR     37  29  72 SE7       30.38R
JOPLIN         CLEAR     38  31  76 E6        30.39R
BRANSON        CLOUDY    37  32  81 CALM      30.39S

$$
MOZ032>034-039>042-045>050-055>058-069>072-201100-
...CENTRAL MISSOURI...

CITY           SKY/WX    TMP DP  RH WIND       PRES   REMARKS
COLUMBIA       CLEAR     39  27  62 E7        30.43R
JEFFERSON CITY CLEAR     33  27  78 CALM      30.44S
ROLLA          CLEAR     29  24  82 CALM      30.42R
SEDALIA        CLOUDY    36  33  89 NE5       30.43S
WHITEMAN AFB   CLEAR     35  28  73 CALM      30.38S
WARRENSBURG    CLOUDY    32  30  93 CALM      30.43R
OSAGE BEACH    CLEAR     29  27  92 CALM      30.43R

$$
MOZ051-052-059>065-201100-
...EAST CENTRAL MISSOURI...

CITY           SKY/WX    TMP DP  RH WIND       PRES   REMARKS
ST LOUIS INTL  CLEAR     39  29  67 E7        30.44S
SPIRIT OF STL  CLEAR     30  28  92 SW3       30.45R
ST CHARLES     CLEAR     38  29  70 E3        30.45R

$$
MOZ072>076-082>087-097>100-106>115-201100-
...SOUTH CENTRAL AND SOUTHEAST MISSOURI...

CITY           SKY/WX    TMP DP  RH WIND       PRES   REMARKS
CAPE GIRARDEAU FAIR      34  31  88 CALM      30.41S
FARMINGTON     CLEAR     33  30  88 E3        30.42S
POPLAR BLUFF   FAIR      37  34  89 NW3       30.41S
WEST PLAINS    CLEAR     36  29  75 N3        30.40R

$$




USA.gov is the U.S. government's official web portal to all federal, state and local government web resources and services.